weather.gov     
National Weather Service

Regional Weather Roundup
NWS Homepage
This page is being discontinued on March 12, 2014.
The same data is available at this site. Please update your bookmarks.
Thank you, and we apologize for the inconvenience.
Please send an email to SR-SRH.Webmaster@noaa.gov with any concerns.


Current Version
Previous Version:    01  02  03  04  05  06  07  08  09  10  11  12  13  14  15  16  17  18  19  20  21  22  23  24  25  26  27  28  29  30  
   31  32  33  34  35  36  37  38  39  40  41  42  43  44  45  46  47  48  49  50  51  52  53  
[Printable]
667
ASUS43 KIWX 200110
RWRIWX

KIWX WEATHER ROUNDUP
NATIONAL WEATHER SERVICE NORTHERN INDIANA
800 PM EST FRI DEC 19 2014

NOTE: "FAIR" INDICATES FEW OR NO CLOUDS BELOW 12,000 FEET WITH NO
SIGNIFICANT WEATHER AND/OR OBSTRUCTIONS TO VISIBILITY.

* THESE STATIONS ARE NOT UNDER NWS QUALITY CONTROL. THEY ALSO MAY NOT
  REPORT WEATHER SUCH AS PRECIPITATION OR FOG.

INZ001>027-200200-
NORTHERN INDIANA

CITY           SKY/WX    TMP DP  RH WIND       PRES   REMARKS
GARY*          CLOUDY    34  23  64 CALM      30.30F
VALPARAISO     CLOUDY    30  23  75 CALM      30.29S
MICHIGAN CITY* CLOUDY    32  23  69 CALM      30.29S
LAPORTE*       CLOUDY    32  27  80 W5        30.29S WCI  28
KNOX*          CLOUDY    31  24  77 NW3       30.28S
SOUTH BEND     CLOUDY    32  26  78 CALM      30.28F
ELKHART*       MOCLDY    30  19  64 CALM      30.28
GOSHEN         CLOUDY    30  26  85 N5        30.27F WCI  25
MONTICELLO*    CLOUDY    30  28  94 CALM      30.29S
LOGANSPORT*    CLOUDY    30  27  86 CALM      30.30S
ROCHESTER*     CLOUDY    32  30  93 CALM      30.29S
WARSAW*        CLOUDY    32  28  86 NW5       30.27S WCI  27
ANGOLA*        CLEAR     19  18  93 CALM      30.26F
FORT WAYNE     MOCLDY    29  24  82 E5        30.29F WCI  24
HUNTINGTON*    MOCLDY    28  26  89 CALM      30.28R
PERU/GRISSOM   CLOUDY    28  28 100 SW2       30.28S
MARION*        CLOUDY    29  28  93 CALM      30.29S FOG

$$
INZ028>050-200200-
CENTRAL INDIANA

CITY           SKY/WX    TMP DP  RH WIND       PRES   REMARKS
LAFAYETTE      CLOUDY    29  26  89 CALM      30.31S
KOKOMO*        CLOUDY    30  27  86 W3        30.29S
MUNCIE*        CLOUDY    29  25  85 CALM      30.28F
INDIANAPOLIS   CLOUDY    29  24  82 N5        30.28S WCI  24

$$
MIZ043>046-050>051-056>058-064>065-071>073-077>080-200200-
SOUTHWEST LOWER MICHIGAN

CITY           SKY/WX    TMP DP  RH WIND       PRES   REMARKS
BATTLE CREEK   CLEAR     26  19  74 E3        30.29F
BENTON HARBOR  CLOUDY    30  23  75 E3        30.28F
COLDWATER*     CLEAR     23  22  96 NE3       30.27F
HILLSDALE*     CLOUDY    30  25  84 CALM      30.27F
HOLLAND        CLEAR     25  20  81 CALM      30.30F
GRAND RAPIDS   PTCLDY    25  19  78 CALM      30.30S
KALAMAZOO      CLEAR     25  20  81 SE3       30.28F
STURGIS*       CLEAR     23  21  93 CALM      30.26F
THREE RIVERS*  FAIR      26  20  78 CALM      30.27F

$$
OHZ001>008-015>018-024>025-200200-
NORTHWEST OHIO

CITY           SKY/WX    TMP DP  RH WIND       PRES   REMARKS
WAUSEON*       CLOUDY    30  23  74 CALM      30.29F
DEFIANCE       CLEAR     27  21  78 CALM      30.29F
FINDLAY        CLOUDY    31  22  69 CALM      30.29F
TOLEDO EXPRESS CLOUDY    30  22  72 CALM      30.30F
TOLEDO METCALF CLOUDY    30  25  81 CALM      30.32F
LIMA           CLOUDY    32  23  69 CALM      30.27F

$$
AND FOR LAKE MICHIGAN COASTAL AND OPEN LAKE BUOY OBSERVATIONS

STATION/POSITION TEMP    WIND        PRES    VSBY  WAVE
                 AIR SEA DIR/SP/G                  HT/PER
                 (F)     (DEG/KT/KT) (MB)    (MI)  (FT/S)
CALUMET HARBOR    32     120/  2/  2 1024.4R
SAINT JOSEPH      32      40/  2/  4 1025.4F

$$
&&




U.S. Dept. of Commerce
NOAA National Weather Service
1325 East West Highway
Silver Spring, MD 20910
E-mail: w-nws.webmaster@noaa.gov
Page last modified: May 16, 2007
NATIONAL WEATHER SERVICE: for Safety, for Work, for Fun - FOR LIFE